Weather History for KH21 - September, 2012

Change the Weather History Date:

Saturday, September 1, 2012

  Actual Average (KAIZ) Record (KAIZ)
Temperature  
Mean Temperature 71 °F -  
Max Temperature 73 °F 84 °F 102 °F (2000)
Min Temperature 69 °F 61 °F 55 °F (1999)
Cooling Degree Days 6    
Growing Degree Days 21 (Base 50)    
Moisture  
Dew Point 69 °F    
Average Humidity 93    
Maximum Humidity 100    
Minimum Humidity 88    
Precipitation  
Precipitation 0.13 in - - ()
Sea Level Pressure  
Sea Level Pressure 29.81 in    
Wind  
Wind Speed 8 mph ()    
Max Wind Speed 13 mph    
Max Gust Speed 18 mph    
Visibility 7.5 miles    
Events Rain    
Averages and records for this station are not official NWS values.
T = Trace of Precipitation, MM = Missing Value Source: Averaged Metar Reports

Daily Weather History Graph

Daily Weather History Graph

Search for Another Location

Airport or City:

Trip Planner

Search our weather history database for the weather conditions in past years. The results will help you decide how hot, cold, wet, or windy it might be!

Date:

Astronomy

Sep. 01, 2012 Rise Set
Actual Time 6:41 AM CDT 7:39 PM CDT
Civil Twilight 6:14 AM CDT 8:06 PM CDT
Nautical Twilight 5:42 AM CDT 8:38 PM CDT
Astronomical Twilight 5:08 AM CDT 9:11 PM CDT
Moon 7:59 PM CDT (9/1) 7:46 AM CDT (9/1)
Length of Visible Light 13h 52m
Length of Day
12h 58m
Full, 99% of the Moon is Illuminated
Sep 1
Full
Sep 8
Last Quarter
Sep 15
New
Sep 22
First Quarter
Sep 29
Full

Hourly Weather History & Observations

Time (CDT) Temp. Dew Point Humidity Pressure Visibility Wind Dir Wind Speed Gust Speed Precip Events Conditions
12:15 AM 71.6 °F 69.8 °F 94% 29.79 in 7.0 mi SE 6.9 mph - 0.02 in Rain Heavy Rain
12:35 AM 71.6 °F 69.8 °F 94% 29.80 in 10.0 mi SSE 5.8 mph - 0.02 in   Overcast
12:55 AM 71.6 °F 69.8 °F 94% 29.79 in 10.0 mi SSE 5.8 mph - 0.02 in   Overcast
1:15 AM 71.6 °F 69.8 °F 94% 29.79 in 10.0 mi South 8.1 mph - 0.01 in   Light Drizzle
1:35 AM 71.6 °F 69.8 °F 94% 29.80 in 10.0 mi South 8.1 mph - 0.01 in   Overcast
1:55 AM 71.6 °F 69.8 °F 94% 29.80 in 10.0 mi South 11.5 mph - 0.01 in   Overcast
2:15 AM 69.8 °F 68.0 °F 94% 29.79 in 10.0 mi SSE 6.9 mph - N/A   Overcast
2:35 AM 69.8 °F 68.0 °F 94% 29.80 in 10.0 mi South 9.2 mph 17.3 mph N/A   Overcast
2:55 AM 69.8 °F 68.0 °F 94% 29.79 in 10.0 mi SSE 10.4 mph - N/A   Overcast
3:15 AM 69.8 °F 68.0 °F 94% 29.79 in 10.0 mi SSE 10.4 mph - N/A   Overcast
3:35 AM 69.8 °F 68.0 °F 94% 29.79 in 10.0 mi South 10.4 mph 16.1 mph N/A   Overcast
3:55 AM 69.8 °F 68.0 °F 94% 29.79 in 10.0 mi SSE 8.1 mph - N/A   Overcast
4:15 AM 69.8 °F 68.0 °F 94% 29.79 in 10.0 mi SSE 8.1 mph 17.3 mph N/A   Overcast
4:35 AM 69.8 °F 68.0 °F 94% 29.79 in 10.0 mi South 11.5 mph - N/A   Overcast
4:55 AM 69.8 °F 68.0 °F 94% 29.79 in 10.0 mi South 10.4 mph - N/A   Overcast
5:15 AM 69.8 °F 66.2 °F 88% 29.79 in 10.0 mi South 11.5 mph 18.4 mph N/A   Overcast
5:35 AM 69.8 °F 66.2 °F 88% 29.79 in 10.0 mi South 9.2 mph - N/A   Overcast
5:55 AM 69.8 °F 66.2 °F 88% 29.78 in 10.0 mi SSE 10.4 mph - N/A   Overcast
6:15 AM 69.8 °F 66.2 °F 88% 29.78 in 10.0 mi SSE 11.5 mph 16.1 mph N/A   Overcast
6:35 AM 69.8 °F 66.2 °F 88% 29.79 in 10.0 mi SSE 12.7 mph 16.1 mph N/A   Overcast
6:55 AM 69.8 °F 66.2 °F 88% 29.79 in 10.0 mi SSE 12.7 mph 17.3 mph N/A   Overcast
7:15 AM 69.8 °F 66.2 °F 88% 29.79 in 10.0 mi SSE 10.4 mph - N/A   Overcast
7:35 AM 69.8 °F 66.2 °F 88% 29.79 in 10.0 mi SSE 10.4 mph - N/A   Overcast
7:55 AM 69.8 °F 68.0 °F 94% 29.79 in 10.0 mi SSE 9.2 mph 16.1 mph N/A   Overcast
8:15 AM 69.8 °F 68.0 °F 94% 29.79 in 5.0 mi SSE 6.9 mph - N/A   Overcast
8:35 AM 69.8 °F 68.0 °F 94% 29.79 in 10.0 mi SSE 8.1 mph - N/A   Overcast
8:55 AM 69.8 °F 68.0 °F 94% 29.79 in 7.0 mi South 9.2 mph - N/A   Overcast
9:15 AM 69.8 °F 68.0 °F 94% 29.79 in 5.0 mi South 8.1 mph - N/A   Overcast
9:35 AM 71.6 °F 68.0 °F 88% 29.79 in 7.0 mi South 6.9 mph - N/A   Overcast
9:55 AM 71.6 °F 68.0 °F 88% 29.80 in 7.0 mi South 6.9 mph - N/A   Overcast
10:15 AM 71.6 °F 69.8 °F 94% 29.80 in 4.0 mi SSE 11.5 mph - N/A   Overcast
10:35 AM 71.6 °F 69.8 °F 94% 29.80 in 2.5 mi SSE 8.1 mph - N/A   Overcast
10:55 AM 71.6 °F 69.8 °F 94% 29.80 in 3.0 mi SSE 6.9 mph - N/A   Drizzle
11:15 AM 71.6 °F 69.8 °F 94% 29.79 in 3.0 mi South 6.9 mph - N/A   Overcast
11:55 AM 71.6 °F 69.8 °F 94% 29.79 in 7.0 mi SSE 6.9 mph - N/A   Overcast
12:15 PM 71.6 °F 69.8 °F 94% 29.78 in 4.0 mi SSE 8.1 mph - N/A   Overcast
12:35 PM 71.6 °F 69.8 °F 94% 29.78 in 2.5 mi South 5.8 mph - N/A   Drizzle
12:55 PM 71.6 °F 69.8 °F 94% 29.78 in 2.5 mi SSE 6.9 mph - N/A   Light Drizzle
1:15 PM 71.6 °F 69.8 °F 94% 29.77 in 2.5 mi South 4.6 mph - N/A Rain Rain
1:35 PM 73.4 °F 71.6 °F 94% 29.77 in 4.0 mi Calm Calm - N/A   Light Drizzle
1:55 PM 73.4 °F 71.6 °F 94% 29.77 in 7.0 mi South 3.5 mph - N/A   Overcast
2:15 PM 73.4 °F 69.8 °F 88% 29.77 in 3.0 mi West 5.8 mph - N/A Rain Heavy Rain
2:35 PM 73.4 °F 71.6 °F 94% 29.77 in 5.0 mi WNW 6.9 mph - 0.01 in   Light Drizzle
3:15 PM 73.4 °F 69.8 °F 88% 29.77 in 10.0 mi NW 8.1 mph - N/A   Overcast
3:35 PM 73.4 °F 69.8 °F 88% 29.77 in 10.0 mi WNW 10.4 mph - N/A   Overcast
3:55 PM 73.4 °F 69.8 °F 88% 29.78 in 10.0 mi WNW 11.5 mph 18.4 mph N/A   Overcast
4:15 PM 71.6 °F 69.8 °F 94% 29.78 in 5.0 mi NW 9.2 mph - N/A   Light Drizzle
4:35 PM 71.6 °F 69.8 °F 94% 29.79 in 2.0 mi WNW 9.2 mph - N/A   Drizzle
4:55 PM 71.6 °F 71.6 °F 100% 29.80 in 5.0 mi WNW 11.5 mph - 0.01 in Rain Heavy Rain
5:15 PM 71.6 °F 69.8 °F 94% 29.80 in 4.0 mi West 8.1 mph - N/A   Drizzle
5:35 PM 71.6 °F 69.8 °F 94% 29.81 in 4.0 mi West 9.2 mph - N/A   Drizzle
5:55 PM 71.6 °F 69.8 °F 94% 29.82 in 5.0 mi West 9.2 mph - N/A   Overcast
6:15 PM 71.6 °F 69.8 °F 94% 29.83 in 10.0 mi West 8.1 mph - N/A   Overcast
6:35 PM 71.6 °F 69.8 °F 94% 29.83 in 10.0 mi West 8.1 mph - N/A   Overcast
6:55 PM 71.6 °F 69.8 °F 94% 29.84 in 7.0 mi West 9.2 mph - N/A   Overcast
7:15 PM 71.6 °F 69.8 °F 94% 29.84 in 7.0 mi West 6.9 mph - N/A   Overcast
7:35 PM 71.6 °F 69.8 °F 94% 29.84 in 4.0 mi West 4.6 mph - 0.01 in Rain Heavy Rain
7:55 PM 71.6 °F 69.8 °F 94% 29.84 in 7.0 mi West 4.6 mph - 0.03 in Rain Rain
8:15 PM 71.6 °F 69.8 °F 94% 29.85 in 5.0 mi WNW 12.7 mph - 0.03 in Rain Rain
8:35 PM 71.6 °F 69.8 °F 94% 29.86 in 10.0 mi West 8.1 mph - 0.03 in   Overcast
8:55 PM 71.6 °F 69.8 °F 94% 29.87 in 10.0 mi West 11.5 mph - 0.03 in   Overcast
9:15 PM 71.6 °F 69.8 °F 94% 29.88 in 5.0 mi West 9.2 mph - 0.01 in Rain Light Rain
9:35 PM 71.6 °F 69.8 °F 94% 29.88 in 10.0 mi West 8.1 mph - 0.01 in   Overcast
9:55 PM 71.6 °F 69.8 °F 94% 29.89 in 10.0 mi West 9.2 mph - 0.01 in   Overcast
10:15 PM 71.6 °F 69.8 °F 94% 29.89 in 4.0 mi West 9.2 mph - N/A Rain Heavy Rain
10:35 PM 71.6 °F 69.8 °F 94% 29.89 in 4.0 mi West 10.4 mph - 0.01 in   Light Drizzle
10:55 PM 69.8 °F 69.8 °F 100% 29.89 in 10.0 mi West 9.2 mph - 0.01 in   Overcast
11:15 PM 69.8 °F 69.8 °F 100% 29.89 in 7.0 mi West 10.4 mph - N/A Rain Rain
11:35 PM 69.8 °F 69.8 °F 100% 29.89 in 10.0 mi West 9.2 mph - N/A   Overcast
11:55 PM 69.8 °F 68.0 °F 94% 29.89 in 10.0 mi West 10.4 mph 17.3 mph N/A   Overcast